Regional Weather Roundup
Issued by NWS Northern Indiana

Home | Current Version | Previous Version | Text Only | Print | Product List | Glossary On
Versions: 1 2 3 4 5 6 7 8 9 10 11 12 13 14 15 16 17 18 19 20 21 22 23 24 25 26 27 28 29 30 31 32 33 34 35 36 37 38 39 40 41 42 43 44 45 46 47 48 49 50
000
ASUS43 KIWX 260510
RWRIWX

KIWX WEATHER ROUNDUP
NATIONAL WEATHER SERVICE NORTHERN INDIANA
100 AM EDT SAT JUL 26 2014

NOTE: "FAIR" INDICATES FEW OR NO CLOUDS BELOW 12,000 FEET WITH NO
SIGNIFICANT WEATHER AND/OR OBSTRUCTIONS TO VISIBILITY.

* THESE STATIONS ARE NOT UNDER NWS QUALITY CONTROL. THEY ALSO MAY NOT
  REPORT WEATHER SUCH AS PRECIPITATION OR FOG.

INZ001>027-260600-
NORTHERN INDIANA

CITY           SKY/WX    TMP DP  RH WIND       PRES   REMARKS
GARY*          MOCLDY    70  59  67 CALM      29.93F
VALPARAISO     CLOUDY    65  59  81 S5        29.95S
MICHIGAN CITY* PTCLDY    63  55  77 SE3       29.95S
LAPORTE*       MOCLDY    63  58  85 S5        29.96S
KNOX*          CLOUDY    64  59  83 S3        29.95S
SOUTH BEND     CLEAR     65  57  75 S6        29.96F
GOSHEN         CLEAR     62  58  86 CALM      29.97F
MONTICELLO*    CLOUDY    68  60  74 S5        29.96S
LOGANSPORT*    CLOUDY    64  59  82 S5        29.97F
ROCHESTER*     MOCLDY    68  59  73 S5        29.97F
WARSAW*        CLEAR     63  57  82 CALM      29.99S
ANGOLA*        CLEAR     59  57  94 CALM      29.99S
FORT WAYNE     MOCLDY    64  58  80 S3        30.00S
HUNTINGTON*    PTCLDY    63  58  84 CALM      29.99S
PERU/GRISSOM   CLOUDY    66  64  94 S6        29.98F
MARION*        MOCLDY    62  59  90 S3        30.00F

$$
INZ028>050-260600-
CENTRAL INDIANA

CITY           SKY/WX    TMP DP  RH WIND       PRES   REMARKS
LAFAYETTE      CLOUDY    68  59  73 S6        29.96F
KOKOMO*        MOCLDY    64  61  88 S6        29.99S
MUNCIE*        CLOUDY    68  58  70 S5        30.01S
INDIANAPOLIS   CLOUDY    69  60  73 S6        29.99F

$$
MIZ043>046-050>051-056>058-064>065-071>073-077>080-260600-
SOUTHWEST LOWER MICHIGAN

CITY           SKY/WX    TMP DP  RH WIND       PRES   REMARKS
BATTLE CREEK   CLEAR     63  58  83 S6        29.98S
BENTON HARBOR  CLEAR     63  58  83 SE3       29.95F
COLDWATER*     CLEAR     62  60  94 CALM      29.99S
HILLSDALE*     CLEAR     58  58 100 CALM      30.00R
HOLLAND        CLEAR     63  59  87 S5        29.94F
GRAND RAPIDS   CLEAR     63  59  87 S6        29.95F
KALAMAZOO      CLEAR     63  58  83 S7        29.97S
STURGIS*       CLEAR     61  57  88 CALM      29.98S
THREE RIVERS*  FAIR      61  59  94 CALM      29.98S

$$
OHZ001>008-015>018-024>025-260600-
NORTHWEST OHIO

CITY           SKY/WX    TMP DP  RH WIND       PRES   REMARKS
WAUSEON*       FAIR      63  57  82 SW6       29.99S
DEFIANCE       CLEAR     64  56  75 CALM      29.99S
FINDLAY        CLOUDY    65  57  75 S7        29.99S
TOLEDO EXPRESS PTCLDY    63  57  81 CALM      29.99S
TOLEDO METCALF PTCLDY    65  57  75 S3        29.99F
LIMA           CLOUDY    68  59  73 S5        30.01S

$$
&&


USA.gov is the U.S. government's official web portal to all federal, state and local government web resources and services.